Flag for Canada Weather past 2 weeks in Arviat, Nunavut Territory, Canada

Now
-9 °F

Blizzard. Ice fog.


Feels Like: -37 °F
Forecast: -14 / 3 °F
Wind: 25 mph from Northwest

Location: Arviat Airport

Current Time: Jan 27, 2015 at 1:24:20 PM

Latest Report: Jan 27, 2015 at 1:00 PM


Visibility: 0 mi

Pressure: 29.73 "Hg

Humidity: 77%

Dew point: -15 °F

Location of ArviatLocation

Historic Weather in Arviat — Graph

°F

Arviat temperature yesterday

Maximum temperature yesterday: -2 °F (at 3:00 PM)
Minimum temperature yesterday: -17 °F (at 12:00 AM)
Average temperature yesterday: -7 °F

Past Weeks' High & Low Weather Summary

 TemperatureHumidityPressure
High3 °F (Jan 27, 5:00 AM)92% (Jan 26, 11:00 PM)30.29 "Hg (Jan 26, 11:00 PM)
Low-36 °F (Jan 18, 4:00 AM)59% (Jan 18, 9:00 AM)29.50 "Hg (Jan 27, 4:00 AM)
Average-19 °F75%29.94 "Hg
* Reported Jan 12 12:00 Noon — Jan 27 12:00 Noon, Arviat, Weather by CustomWeather, © 2014

Note: Actual official high and low records may vary slightly from our data, if they occured in-between our weather recording intervals... More about our weather records

Advertising

Arviat weather history for previous 24 hours

 ConditionsComfort  
Time TempWeatherWind HumidityBarometerVisibility
12:00 PM
Jan 27
-6 °FLight snow. Cloudy.25 mph84%29.70 "Hg1 mi
11:05 AM-6 °FHeavy snow. Overcast.31 mph84%29.69 "Hg0 mi
10:00 AM-6 °FPartly sunny.28 mph84%29.68 "Hg1 mi
9:00 AM-6 °FBroken clouds.32 mph84%29.65 "Hg1 mi
8:00 AM-6 °FIce fog.29 mph84%29.62 "Hg1 mi
7:00 AM-4 °FClear.28 mph92%29.59 "Hg1 mi
6:01 AM0 °FLight snow. Passing clouds.18 mph84%29.55 "Hg6 mi
5:00 AM3 °FLight snow. Overcast.14 mph92%29.51 "Hg1 mi
4:00 AM1 °FLight snow. Overcast.6 mph92%29.50 "Hg2 mi
3:00 AM1 °FLight snow. Overcast.8 mph92%29.50 "Hg1 mi
2:50 AM1 °FLight snow. Overcast.8 mph92%29.50 "Hg1 mi
2:00 AM1 °FLight snow. Ice fog.7 mph85%29.51 "Hg1 mi
1:00 AM0 °FLight snow. Mostly cloudy.9 mph84%29.52 "Hg9 mi
12:00 AM-2 °FLight snow. Mostly cloudy.10 mph84%29.52 "Hg9 mi
11:00 PM
Jan 26
-4 °FLight snow. Passing clouds.12 mph92%29.54 "Hg6 mi
10:49 PM-4 °FLight snow. Partly cloudy.12 mph84%29.54 "Hg5 mi
10:00 PM-4 °FLight snow. Passing clouds.13 mph84%29.57 "Hg3 mi
9:58 PM-4 °FLight snow. Passing clouds.13 mph84%29.57 "Hg2 mi
9:01 PM-4 °FLight snow. Mostly cloudy.14 mph84%29.59 "Hg6 mi
8:00 PM-6 °FLight snow. Overcast.18 mph84%29.61 "Hg4 mi
7:02 PM-6 °FLight snow. Overcast.18 mph84%29.62 "Hg6 mi
6:00 PM-4 °FLight snow. Overcast.18 mph84%29.65 "Hg8 mi
5:00 PM-4 °FLight snow. Mostly cloudy.18 mph84%29.67 "Hg7 mi
4:00 PM-4 °FLight snow. Overcast.22 mph84%29.70 "Hg3 mi
3:00 PM-2 °FLight snow. Overcast.21 mph84%29.72 "Hg3 mi
2:00 PM-4 °FPartly sunny.16 mph84%29.75 "Hg10 mi
1:50 PM-6 °FOvercast.17 mph84%29.75 "Hg8 mi
1:00 PM-6 °FLight snow. Overcast.16 mph84%29.78 "Hg3 mi
Weather by CustomWeather, © 2014

See weather overviewHow to use our weather pages